• In Hungary
  • List of Countries
  • For 7 days
  • Water Temperature
  • Satellite Maps
  • Weather Map
  • News
  • Weather Widgets
  • user-avatar
    Login

    Hourly Weather Volgograd

    Today, 24 September, Monday

    Time Temperature Precipitation Wind Pressure Humidity
    00:00 +20°C° 0.2 mm 7 mps 750 mmHg 59%
    01:00 +18°C° 0.1 mm 7 mps 751 mmHg 63%
    02:00 +16°C° 0.1 mm 7 mps 751 mmHg 68%
    03:00 +14°C° 0 mm 6 mps 751 mmHg 73%
    04:00 +13°C° 0 mm 6 mps 751 mmHg 73%
    05:00 +11°C° 0 mm 6 mps 752 mmHg 73%
    06:00 +10°C° 0 mm 6 mps 753 mmHg 72%
    07:00 +11°C° 0 mm 6 mps 753 mmHg 68%
    08:00 +13°C° 0 mm 5 mps 753 mmHg 64%
    09:00 +15°C° 0 mm 5 mps 753 mmHg 56%
    10:00 +16°C° 0 mm 5 mps 753 mmHg 49%
    11:00 +17°C° 0 mm 5 mps 754 mmHg 43%
    12:00 +19°C° 0 mm 5 mps 754 mmHg 37%
    13:00 +20°C° 0 mm 4 mps 754 mmHg 34%
    14:00 +20°C° 0 mm 4 mps 753 mmHg 31%
    15:00 +21°C° 0 mm 3 mps 753 mmHg 28%
    16:00 +20°C° 0 mm 3 mps 753 mmHg 30%
    17:00 +19°C° 0 mm 2 mps 753 mmHg 32%
    18:00 +19°C° 0 mm 1 mps 752 mmHg 33%
    19:00 +18°C° 0 mm 2 mps 752 mmHg 34%
    20:00 +17°C° 0 mm 2 mps 752 mmHg 35%
    21:00 +17°C° 0 mm 2 mps 752 mmHg 35%
    22:00 +17°C° 0 mm 3 mps 752 mmHg 35%
    23:00 +16°C° 0 mm 3 mps 751 mmHg 35%

    Tomorrow, 25 September, Tuesday

    Time Temperature Precipitation Wind Pressure Humidity
    00:00 +15°C° 0 mm 4 mps 751 mmHg 35%
    01:00 +15°C° 0 mm 4 mps 751 mmHg 34%
    02:00 +17°C° 0 mm 4 mps 750 mmHg 33%
    03:00 +16°C° 0 mm 5 mps 750 mmHg 33%
    04:00 +16°C° 0 mm 5 mps 750 mmHg 35%
    05:00 +17°C° 0 mm 5 mps 749 mmHg 38%
    06:00 +19°C° 0 mm 6 mps 749 mmHg 41%
    07:00 +20°C° 0 mm 6 mps 749 mmHg 42%
    08:00 +21°C° 0 mm 7 mps 749 mmHg 44%
    09:00 +23°C° 0 mm 8 mps 749 mmHg 46%
    10:00 +24°C° 0 mm 8 mps 749 mmHg 44%
    11:00 +27°C° 0 mm 9 mps 749 mmHg 41%
    12:00 +28°C° 0 mm 9 mps 748 mmHg 38%
    13:00 +27°C° 0 mm 8 mps 749 mmHg 42%
    14:00 +26°C° 0 mm 8 mps 749 mmHg 46%
    15:00 +24°C° 0 mm 7 mps 749 mmHg 49%
    16:00 +21°C° 0.1 mm 7 mps 749 mmHg 56%
    17:00 +17°C° 0.1 mm 6 mps 750 mmHg 63%
    18:00 +15°C° 0.1 mm 6 mps 750 mmHg 69%
    19:00 +14°C° 0.2 mm 6 mps 751 mmHg 69%
    20:00 +14°C° 0.2 mm 6 mps 751 mmHg 69%
    21:00 +13°C° 0.2 mm 5 mps 752 mmHg 69%
    22:00 +13°C° 0.2 mm 5 mps 753 mmHg 69%
    23:00 +13°C° 0.2 mm 4 mps 753 mmHg 68%

    Day after tomorrow, 26 September, Wednesday

    Time Temperature Precipitation Wind Pressure Humidity
    00:00 +13°C° 0.2 mm 3 mps 753 mmHg 67%
    01:00 +13°C° 0.1 mm 3 mps 754 mmHg 68%
    02:00 +13°C° 0.1 mm 3 mps 754 mmHg 68%
    03:00 +13°C° 0.1 mm 3 mps 754 mmHg 68%
    04:00 +13°C° 0 mm 3 mps 755 mmHg 68%
    05:00 +13°C° 0 mm 3 mps 755 mmHg 67%
    06:00 +13°C° 0 mm 3 mps 755 mmHg 66%
    07:00 +13°C° 0 mm 4 mps 756 mmHg 63%
    08:00 +14°C° 0 mm 4 mps 756 mmHg 59%
    09:00 +14°C° 0 mm 5 mps 757 mmHg 55%
    10:00 +15°C° 0 mm 5 mps 757 mmHg 51%
    11:00 +16°C° 0 mm 5 mps 757 mmHg 46%
    12:00 +17°C° 0 mm 5 mps 757 mmHg 41%
    13:00 +17°C° 0 mm 5 mps 757 mmHg 40%
    14:00 +17°C° 0 mm 5 mps 757 mmHg 38%
    15:00 +17°C° 0 mm 5 mps 757 mmHg 37%
    16:00 +17°C° 0 mm 4 mps 758 mmHg 39%
    17:00 +15°C° 0 mm 4 mps 758 mmHg 42%
    18:00 +14°C° 0 mm 4 mps 758 mmHg 44%
    19:00 +14°C° 0 mm 3 mps 759 mmHg 45%
    20:00 +13°C° 0 mm 3 mps 759 mmHg 47%
    21:00 +12°C° 0 mm 3 mps 760 mmHg 48%
    22:00 +12°C° 0 mm 3 mps 760 mmHg 49%
    23:00 +12°C° 0 mm 2 mps 760 mmHg 51%

    27 September, Thursday

    Time Temperature Precipitation Wind Pressure Humidity
    00:00 +12°C° 0 mm 2 mps 760 mmHg 52%
    01:00 +10°C° 0 mm 2 mps 760 mmHg 53%
    02:00 +10°C° 0 mm 2 mps 760 mmHg 55%
    03:00 +10°C° 0 mm 1 mps 760 mmHg 56%
    04:00 +10°C° 0 mm 1 mps 760 mmHg 57%
    05:00 +10°C° 0 mm 1 mps 760 mmHg 58%
    06:00 +9°C° 0 mm 1 mps 760 mmHg 59%
    07:00 +11°C° 0 mm 1 mps 760 mmHg 53%
    08:00 +13°C° 0 mm 2 mps 760 mmHg 48%
    09:00 +13°C° 0 mm 3 mps 760 mmHg 42%
    10:00 +14°C° 0 mm 4 mps 760 mmHg 38%
    11:00 +15°C° 0 mm 5 mps 760 mmHg 34%
    12:00 +16°C° 0 mm 6 mps 759 mmHg 30%
    13:00 +16°C° 0 mm 6 mps 759 mmHg 30%
    14:00 +16°C° 0 mm 7 mps 758 mmHg 30%
    15:00 +16°C° 0 mm 7 mps 758 mmHg 29%
    16:00 +15°C° 0 mm 6 mps 758 mmHg 31%
    17:00 +15°C° 0 mm 5 mps 757 mmHg 33%
    18:00 +14°C° 0 mm 4 mps 757 mmHg 34%
    19:00 +13°C° 0 mm 4 mps 757 mmHg 36%
    20:00 +13°C° 0 mm 4 mps 757 mmHg 37%
    21:00 +12°C° 0 mm 4 mps 757 mmHg 38%
    22:00 +12°C° 0 mm 5 mps 757 mmHg 39%
    23:00 +12°C° 0 mm 5 mps 757 mmHg 39%

    28 September, Friday

    Time Temperature Precipitation Wind Pressure Humidity
    00:00 +12°C° 0 mm 5 mps 756 mmHg 40%
    01:00 +10°C° 0 mm 5 mps 756 mmHg 41%
    02:00 +10°C° 0 mm 5 mps 756 mmHg 42%
    03:00 +10°C° 0 mm 5 mps 756 mmHg 43%
    04:00 +10°C° 0 mm 5 mps 756 mmHg 44%
    05:00 +10°C° 0 mm 5 mps 755 mmHg 46%
    06:00 +9°C° 0 mm 5 mps 755 mmHg 47%
    07:00 +11°C° 0 mm 6 mps 755 mmHg 45%
    08:00 +13°C° 0 mm 6 mps 755 mmHg 44%
    09:00 +14°C° 0 mm 7 mps 756 mmHg 42%
    10:00 +16°C° 0 mm 7 mps 755 mmHg 41%
    11:00 +17°C° 0 mm 7 mps 755 mmHg 40%
    12:00 +20°C° 0 mm 7 mps 755 mmHg 39%
    13:00 +20°C° 0 mm 7 mps 755 mmHg 39%
    14:00 +21°C° 0 mm 6 mps 754 mmHg 38%
    15:00 +21°C° 0 mm 6 mps 754 mmHg 38%
    16:00 +21°C° 0 mm 6 mps 754 mmHg 41%
    17:00 +20°C° 0 mm 5 mps 753 mmHg 43%
    18:00 +19°C° 0 mm 4 mps 753 mmHg 46%
    19:00 +18°C° 0 mm 4 mps 753 mmHg 47%
    20:00 +18°C° 0 mm 4 mps 753 mmHg 48%
    21:00 +17°C° 0 mm 4 mps 754 mmHg 49%
    22:00 +17°C° 0 mm 4 mps 754 mmHg 50%
    23:00 +15°C° 0 mm 4 mps 753 mmHg 52%

    29 September, Saturday

    Time Temperature Precipitation Wind Pressure Humidity
    00:00 +15°C° 0 mm 4 mps 753 mmHg 54%
    01:00 +14°C° 0 mm 4 mps 753 mmHg 56%
    02:00 +14°C° 0 mm 3 mps 753 mmHg 58%
    03:00 +13°C° 0 mm 3 mps 753 mmHg 60%
    04:00 +13°C° 0 mm 3 mps 753 mmHg 62%
    05:00 +13°C° 0 mm 3 mps 753 mmHg 63%
    06:00 +14°C° 0 mm 2 mps 753 mmHg 65%
    07:00 +15°C° 0 mm 2 mps 754 mmHg 60%
    08:00 +17°C° 0 mm 2 mps 754 mmHg 56%
    09:00 +18°C° 0 mm 2 mps 754 mmHg 51%
    10:00 +20°C° 0 mm 2 mps 754 mmHg 47%
    11:00 +21°C° 0 mm 2 mps 753 mmHg 42%
    12:00 +23°C° 0 mm 2 mps 753 mmHg 38%
    13:00 +24°C° 0 mm 2 mps 753 mmHg 36%
    14:00 +24°C° 0 mm 2 mps 753 mmHg 34%
    15:00 +25°C° 0 mm 2 mps 752 mmHg 32%
    16:00 +24°C° 0 mm 2 mps 752 mmHg 34%
    17:00 +23°C° 0 mm 1 mps 752 mmHg 37%
    18:00 +22°C° 0 mm 1 mps 752 mmHg 39%
    19:00 +22°C° 0 mm 1 mps 752 mmHg 41%
    20:00 +22°C° 0 mm 1 mps 752 mmHg 42%
    21:00 +20°C° 0 mm 2 mps 752 mmHg 44%
    22:00 +20°C° 0 mm 2 mps 752 mmHg 47%
    23:00 +20°C° 0 mm 2 mps 752 mmHg 50%
    Show more